Weather History for KPRO - September, 2013

Change the Weather History Date:

Saturday, September 28, 2013

  Actual Average Record
Temperature  
Mean Temperature 58 °F -  
Max Temperature 70 °F 72 °F 98 °F (1953)
Min Temperature 46 °F 46 °F 28 °F (1961)
Degree Days  
Heating Degree Days 7    
Growing Degree Days 8 (Base 50)    
Moisture  
Dew Point 53 °F    
Average Humidity 75    
Maximum Humidity 89    
Minimum Humidity 46    
Precipitation  
Precipitation 0.08 in - - ()
Sea Level Pressure  
Sea Level Pressure 29.89 in    
Wind  
Wind Speed 11 mph (WSW)    
Max Wind Speed 20 mph    
Max Gust Speed 25 mph    
Visibility 9 miles    
Events Rain    
Averages and records for this station are not official NWS values.
T = Trace of Precipitation, MM = Missing Value Source: NWS Daily Summary

Daily Weather History Graph

Daily Weather History Graph

Search for Another Location

Airport or City:

Trip Planner

Search our weather history database for the weather conditions in past years. The results will help you decide how hot, cold, wet, or windy it might be!

Date:

Astronomy

Sep. 28, 2013 Rise Set
Actual Time 7:10 AM CDT 7:02 PM CDT
Civil Twilight 6:42 AM CDT 7:30 PM CDT
Nautical Twilight 6:10 AM CDT 8:03 PM CDT
Astronomical Twilight 5:37 AM CDT 8:35 PM CDT
Moon 12:54 AM CDT (9/28) 3:26 PM CDT (9/28)
Length of Visible Light 12h 47m
Length of Day
11h 52m
Waning Crescent, 36% of the Moon is Illuminated
Sep 28
Waning Crescent
Oct 4
New
Oct 11
First Quarter
Oct 18
Full
Oct 26
Last Quarter

Hourly Weather History & Observations

Time (CDT) Temp. Windchill Dew Point Humidity Pressure Visibility Wind Dir Wind Speed Gust Speed Precip Events Conditions
12:15 AM 69.3 °F - 58.3 °F 68% 29.84 in 10.0 mi SE 11.5 mph - N/A   Clear
12:35 AM 68.9 °F - 58.3 °F 69% 29.84 in 10.0 mi SSE 10.4 mph - N/A   Clear
12:55 AM 68.5 °F - 58.5 °F 70% 29.83 in 10.0 mi SSE 10.4 mph - N/A   Clear
1:15 AM 68.5 °F - 58.8 °F 71% 29.83 in 10.0 mi SSE 9.2 mph - N/A   Scattered Clouds
1:35 AM 68.0 °F - 59.0 °F 73% 29.82 in 10.0 mi SE 8.1 mph - N/A   Mostly Cloudy
1:55 AM 67.5 °F - 59.2 °F 75% 29.82 in 10.0 mi SE 10.4 mph - N/A   Scattered Clouds
2:15 AM 67.5 °F - 59.2 °F 75% 29.81 in 10.0 mi SE 10.4 mph - N/A   Clear
2:35 AM 67.5 °F - 59.4 °F 75% 29.81 in 10.0 mi SSE 12.7 mph 16.1 mph N/A   Clear
2:55 AM 67.3 °F - 59.5 °F 76% 29.81 in 10.0 mi SSE 11.5 mph - N/A   Clear
3:15 AM 67.3 °F - 59.9 °F 77% 29.80 in 10.0 mi SSE 10.4 mph - N/A   Clear
3:35 AM 67.1 °F - 59.9 °F 78% 29.80 in 10.0 mi SSE 11.5 mph - N/A   Clear
3:55 AM 67.1 °F - 59.9 °F 78% 29.79 in 10.0 mi SSE 12.7 mph 16.1 mph N/A   Scattered Clouds
4:15 AM 67.1 °F - 60.1 °F 78% 29.79 in 10.0 mi SSE 13.8 mph 17.3 mph N/A   Scattered Clouds
4:35 AM 66.9 °F - 60.1 °F 79% 29.77 in 10.0 mi SSE 13.8 mph 20.7 mph N/A   Scattered Clouds
4:55 AM 67.1 °F - 60.1 °F 78% 29.77 in 10.0 mi SSE 13.8 mph 18.4 mph N/A   Clear
5:15 AM 67.3 °F - 59.9 °F 77% 29.77 in 10.0 mi SSE 11.5 mph 19.6 mph N/A   Scattered Clouds
5:35 AM 67.5 °F - 60.1 °F 77% 29.77 in 10.0 mi SSE 16.1 mph 19.6 mph N/A   Mostly Cloudy
5:55 AM 67.3 °F - 59.9 °F 77% 29.77 in 10.0 mi SSE 12.7 mph 18.4 mph N/A   Scattered Clouds
6:15 AM 67.6 °F - 59.9 °F 76% 29.76 in 10.0 mi SSE 11.5 mph 18.4 mph N/A   Mostly Cloudy
6:35 AM 68.0 °F - 59.9 °F 75% 29.77 in 10.0 mi SSE 10.4 mph 16.1 mph N/A   Overcast
6:55 AM 68.4 °F - 59.9 °F 74% 29.77 in 10.0 mi SSE 11.5 mph - N/A   Overcast
7:15 AM 67.5 °F - 61.2 °F 80% 29.77 in 7.0 mi South 12.7 mph 20.7 mph N/A Rain Light Rain
7:35 AM 67.3 °F - 61.7 °F 82% 29.78 in 10.0 mi South 12.7 mph 19.6 mph N/A   Overcast
7:55 AM 67.1 °F - 61.7 °F 83% 29.78 in 10.0 mi South 12.7 mph 17.3 mph N/A   Overcast
8:15 AM 67.1 °F - 61.7 °F 83% 29.77 in 10.0 mi South 13.8 mph 20.7 mph N/A   Mostly Cloudy
8:35 AM 67.6 °F - 61.7 °F 81% 29.77 in 10.0 mi South 15.0 mph 20.7 mph N/A   Scattered Clouds
8:55 AM 68.2 °F - 61.7 °F 80% 29.77 in 10.0 mi South 15.0 mph 20.7 mph N/A   Scattered Clouds
9:15 AM 69.1 °F - 61.9 °F 78% 29.77 in 10.0 mi South 11.5 mph 16.1 mph N/A   Mostly Cloudy
9:35 AM 69.8 °F - 61.5 °F 75% 29.77 in 10.0 mi South 15.0 mph 18.4 mph N/A   Mostly Cloudy
9:55 AM 70.7 °F - 61.7 °F 73% 29.79 in 10.0 mi South 13.8 mph 23.0 mph N/A   Mostly Cloudy
10:15 AM 70.0 °F - 61.3 °F 74% 29.80 in 10.0 mi SSW 11.5 mph 19.6 mph N/A   Overcast
10:35 AM 67.6 °F - 62.1 °F 82% 29.83 in 2.0 mi West 19.6 mph 25.3 mph 0.01 in Rain Rain
10:55 AM 57.2 °F - 53.4 °F 87% 29.85 in 4.0 mi WNW 17.3 mph 23.0 mph 0.05 in Rain Rain
11:15 AM 56.3 °F - 52.7 °F 88% 29.86 in 10.0 mi WNW 13.8 mph 23.0 mph N/A Rain Light Rain
11:35 AM 55.8 °F - 51.8 °F 87% 29.87 in 4.0 mi NW 10.4 mph 19.6 mph N/A   Overcast
11:55 AM 55.4 °F - 51.8 °F 88% 29.89 in 2.0 mi NW 9.2 mph 17.3 mph 0.01 in   Drizzle
12:15 PM 55.4 °F - 52.2 °F 89% 29.90 in 2.0 mi WNW 8.1 mph - N/A   Light Drizzle
12:35 PM 55.6 °F - 52.0 °F 88% 29.91 in 3.0 mi WNW 9.2 mph - N/A   Drizzle
12:55 PM 55.6 °F - 52.2 °F 88% 29.92 in 4.0 mi WNW 5.8 mph - 0.01 in Rain Light Rain
1:15 PM 56.3 °F - 52.7 °F 88% 29.92 in 10.0 mi WNW 5.8 mph - 0.01 in   Light Drizzle
1:35 PM 56.3 °F - 52.7 °F 88% 29.92 in 7.0 mi WNW 6.9 mph - 0.01 in   Light Drizzle
1:55 PM 56.8 °F - 52.9 °F 87% 29.92 in 10.0 mi WNW 9.2 mph - 0.01 in   Overcast
2:15 PM 58.3 °F - 52.2 °F 80% 29.92 in 10.0 mi NW 12.7 mph 20.7 mph N/A   Overcast
2:35 PM 58.6 °F - 51.3 °F 76% 29.92 in 10.0 mi WNW 10.4 mph - N/A   Overcast
2:55 PM 59.2 °F - 50.2 °F 72% 29.93 in 10.0 mi WNW 10.4 mph 16.1 mph N/A   Overcast
3:15 PM 59.9 °F - 49.6 °F 69% 29.94 in 10.0 mi WNW 6.9 mph - N/A   Overcast
3:35 PM 61.0 °F - 48.4 °F 63% 29.94 in 10.0 mi WNW 8.1 mph 18.4 mph N/A   Mostly Cloudy
3:55 PM 62.4 °F - 47.8 °F 59% 29.94 in 10.0 mi NNW 9.2 mph - N/A   Mostly Cloudy
4:15 PM 63.3 °F - 47.5 °F 56% 29.95 in 10.0 mi WNW 9.2 mph 18.4 mph N/A   Mostly Cloudy
4:35 PM 62.6 °F - 47.5 °F 58% 29.96 in 10.0 mi NW 10.4 mph 16.1 mph N/A   Overcast
4:55 PM 64.8 °F - 45.3 °F 49% 29.96 in 10.0 mi WNW 9.2 mph - N/A   Scattered Clouds
5:15 PM 65.1 °F - 44.8 °F 48% 29.96 in 10.0 mi WNW 9.2 mph - N/A   Clear
5:35 PM 64.8 °F - 44.2 °F 47% 29.97 in 10.0 mi WNW 8.1 mph 17.3 mph N/A   Clear
5:55 PM 64.9 °F - 43.7 °F 46% 29.97 in 10.0 mi NW 9.2 mph - N/A   Clear
6:15 PM 63.9 °F - 43.5 °F 48% 29.98 in 10.0 mi WNW 6.9 mph - N/A   Clear
6:35 PM 62.8 °F - 43.7 °F 50% 29.98 in 10.0 mi WNW 4.6 mph - N/A   Clear
6:55 PM 60.6 °F - 43.7 °F 54% 29.99 in 10.0 mi WNW 5.8 mph - N/A   Clear
7:15 PM 57.0 °F - 45.0 °F 64% 29.99 in 10.0 mi West 5.8 mph - N/A   Clear
7:35 PM 54.9 °F - 45.5 °F 71% 29.99 in 10.0 mi WNW 5.8 mph - N/A   Clear
7:55 PM 53.1 °F - 46.0 °F 77% 30.00 in 10.0 mi West 6.9 mph - N/A   Clear
8:15 PM 52.0 °F - 45.9 °F 80% 30.01 in 10.0 mi West 6.9 mph - N/A   Clear
8:35 PM 52.3 °F - 45.7 °F 78% 30.01 in 10.0 mi West 6.9 mph - N/A   Clear
8:55 PM 51.3 °F - 45.3 °F 80% 30.02 in 10.0 mi West 6.9 mph - N/A   Clear
9:15 PM 50.9 °F - 45.0 °F 80% 30.03 in 10.0 mi West 6.9 mph - N/A   Clear
9:35 PM 49.6 °F - 44.6 °F 83% 30.03 in 10.0 mi West 5.8 mph - N/A   Clear
9:55 PM 48.9 °F - 44.2 °F 84% 30.04 in 10.0 mi West 5.8 mph - N/A   Clear
10:15 PM 49.1 °F - 44.2 °F 83% 30.04 in 10.0 mi West 6.9 mph - N/A   Clear
10:35 PM 49.1 °F - 43.7 °F 82% 30.05 in 10.0 mi West 6.9 mph - N/A   Clear
10:55 PM 48.2 °F - 43.5 °F 84% 30.05 in 10.0 mi West 5.8 mph - N/A   Clear
11:15 PM 47.8 °F - 43.3 °F 84% 30.05 in 10.0 mi West 5.8 mph - N/A   Clear
11:35 PM 46.4 °F 43.5 °F 42.8 °F 87% 30.05 in 10.0 mi WSW 5.8 mph - N/A   Clear
11:55 PM 46.0 °F 42.5 °F 42.8 °F 88% 30.05 in 10.0 mi WSW 6.9 mph - N/A   Clear